Location: Plainartige
(45.6866°N, 1.7993°E)
Time: 10:01:05
(UTC+00:00)

Tiros 1 - Pass Details

Date: 01 June 2022
Orbit: 629 x 663 km, 48.4° (Epoch: 04 July)

Event Time Altitude Azimuth Distance (km) Brightness Sun altitude
Exits shadow 00:02:39 16° 262° (W) 1,622 9.1 -22.2°
Maximum altitude 00:06:15 75° 346° (NNW) 657 7.2 -22.2°
Drops below altitude 10° 00:10:54 10° 72° (ENE) 2,020 10.0 -22.1°
Sets 00:13:15 0° 74° (ENE) 2,934 10.8 -22.1°
